User: anonymous   Login
Location: Unspecified
(0.0000°N, 0.0000°E)
Time: 13:22:29
(UTC+02:00)
Language:

Resurs 1-3 - Orbit

View from above orbital plane
View from above orbital plane
View from above satellite
View from above satellite

Ground track
Ground track

The orbit data is extracted from the following two-line orbital elements,

1 23342U 94074A   15186.71345758  .00000523  00000-0  78209-4 0  9999
2 23342 098.1502 207.2085 0000969 109.7727 023.9564 14.78966060112462
Epoch (UTC): 05 July 2015 17:07:22
Eccentricity: 0.0000969
inclination: 98.1502°
perigee height: 632 km
apogee height: 633 km
right ascension of ascending node: 207.2085°
argument of perigee: 109.7727°
revolutions per day: 14.78966060
mean anomaly at epoch: 23.9564°
orbit number at epoch: 11246

The dashed part of the orbit path shows where the satellite is in the earth's shadow,  

DLR